Date String (YYYY-MM-DD hh:mm:ss) UTC,Instrument flags,absolute air pressure of the measurement (hPa),sample flow rate (lpm),inlet stack bypass flow (lpm),air temperature of the measurement (°C),ambient temperature measured by the external sensor (°C),aerosol sample conditioner tube jacket temperature (°C),OPC LED temperature (°C),internal box temperature (°C),relative humidity of the measurement (%),span deviation,mass concentration of particles derived from Lorenz-Mie calculation of OPC scattering (μg/m³),mass concentration of particles derived from Lorenz-Mie calculation of OPC scattering (μg/m³),mass concentration of particles derived from Lorenz-Mie calculation of OPC scattering (μg/m³)
DateTimeUTC,F1_M11,P_M11,Q1_M11,Q2_M11,T1_M11,T2_M11,T3_M11,T4_M11,T5_M11,U1_M11,ZSPAN_M11,X0_M11,X2_M11,X1_M11
2023-08-19 21:00:00,SystemResetWarning,0833.2,4.99,000.00,027.5,025.7,000.0,035.7,029.2,32.0,0000.0,0012.29,0003.83,0003.08
2023-08-19 21:01:00,SystemResetWarning,0833.2,5.00,000.00,027.4,024.4,000.0,035.7,028.8,31.9,0000.0,0012.94,0003.87,0003.12
2023-08-19 21:02:00,SystemResetWarning,0833.1,5.00,000.00,027.4,023.6,000.0,035.6,028.7,32.1,0000.0,0013.05,0003.92,0003.14
2023-08-19 21:03:00,SystemResetWarning,0833.0,5.01,000.00,027.3,023.8,000.0,035.6,028.7,31.4,0000.0,0013.14,0003.98,0003.17
2023-08-19 21:04:00,SystemResetWarning,0833.0,4.99,000.00,027.3,024.2,000.0,035.6,028.7,31.3,0000.0,0014.12,0004.06,0003.22
2023-08-19 21:05:00,SystemResetWarning,0833.0,5.00,000.00,027.3,024.7,000.0,035.6,028.8,31.7,0000.0,0014.79,0004.11,0003.25
2023-08-19 21:06:00,SystemResetWarning,0833.1,5.00,000.00,027.3,025.1,000.0,035.6,029.0,31.8,0000.0,0015.20,0004.20,0003.30
2023-08-19 21:07:00,SystemResetWarning,0832.9,5.00,000.00,027.4,025.5,000.0,035.7,029.1,31.7,0000.0,0015.51,0004.24,0003.33
2023-08-19 21:08:00,SystemResetWarning,0832.8,5.01,000.00,027.4,025.8,000.0,035.7,029.2,31.1,0000.0,0015.06,0004.27,0003.36
2023-08-19 21:09:00,SystemResetWarning,0832.7,4.99,000.00,027.4,025.1,000.0,035.6,029.0,30.6,0000.0,0015.18,0004.30,0003.37
2023-08-19 21:10:00,SystemResetWarning,0832.8,5.00,000.00,027.3,023.8,000.0,035.5,028.6,30.7,0000.0,0014.19,0004.28,0003.36
2023-08-19 21:11:00,SystemResetWarning,0832.7,5.01,000.00,027.3,023.6,000.0,035.5,028.6,31.1,0000.0,0014.92,0004.28,0003.35
2023-08-19 21:12:00,SystemResetWarning,0832.7,5.00,000.00,027.2,023.9,000.0,035.5,028.6,31.4,0000.0,0015.15,0004.28,0003.33
2023-08-19 21:13:00,SystemResetWarning,0832.7,4.99,000.00,027.2,024.4,000.0,035.5,028.7,31.5,0000.0,0014.63,0004.24,0003.31
2023-08-19 21:14:00,SystemResetWarning,0832.7,5.00,000.00,027.2,024.9,000.0,035.6,028.9,31.9,0000.0,0014.28,0004.21,0003.30
2023-08-19 21:15:00,SystemResetWarning,0832.8,5.01,000.00,027.3,025.3,000.0,035.6,029.0,32.0,0000.0,0013.07,0004.17,0003.29
2023-08-19 21:16:00,SystemResetWarning,0832.8,5.00,000.00,027.4,025.7,000.0,035.6,029.1,32.1,0000.0,0012.25,0004.14,0003.30
2023-08-19 21:17:00,SystemResetWarning,0832.8,4.98,000.00,027.4,025.7,000.0,035.6,029.2,31.9,0000.0,0012.21,0004.16,0003.28
2023-08-19 21:18:00,SystemResetWarning,0832.9,5.01,000.00,027.4,024.4,000.0,035.5,028.9,32.1,0000.0,0011.74,0004.10,0003.26
2023-08-19 21:19:00,SystemResetWarning,0833.0,5.01,000.00,027.3,023.5,000.0,035.5,028.7,32.5,0000.0,0012.01,0004.12,0003.27
2023-08-19 21:20:00,SystemResetWarning,0833.2,5.00,000.00,027.2,023.7,000.0,035.4,028.6,32.8,0000.0,0011.59,0004.13,0003.27
2023-08-19 21:21:00,SystemResetWarning,0833.2,5.01,000.00,027.2,024.1,000.0,035.5,028.6,32.8,0000.0,0011.32,0004.13,0003.27
2023-08-19 21:22:00,SystemResetWarning,0833.0,5.00,000.00,027.2,024.5,000.0,035.5,028.8,32.5,0000.0,0010.22,0004.11,0003.28
2023-08-19 21:23:00,SystemResetWarning,0833.0,5.00,000.00,027.3,025.0,000.0,035.6,028.9,32.8,0000.0,0009.80,0004.11,0003.29
2023-08-19 21:24:00,SystemResetWarning,0832.9,5.00,000.00,027.3,025.4,000.0,035.6,029.1,32.5,0000.0,0009.75,0004.11,0003.28
2023-08-19 21:25:00,SystemResetWarning,0833.1,4.99,000.00,027.4,025.8,000.0,035.6,029.2,32.6,0000.0,0009.70,0004.08,0003.27
2023-08-19 21:26:00,SystemResetWarning,0833.3,5.00,000.00,027.4,026.1,000.0,035.7,029.3,32.4,0000.0,0009.73,0004.09,0003.24
2023-08-19 21:27:00,SystemResetWarning,0833.0,4.99,000.00,027.5,025.5,000.0,035.6,029.2,32.3,0000.0,0009.61,0004.11,0003.23
2023-08-19 21:28:00,SystemResetWarning,0832.9,5.01,000.00,027.4,024.1,000.0,035.5,028.8,32.5,0000.0,0009.33,0004.05,0003.20
2023-08-19 21:29:00,SystemResetWarning,0832.9,5.00,000.00,027.3,023.7,000.0,035.5,028.7,32.6,0000.0,0009.36,0004.07,0003.19
2023-08-19 21:30:00,SystemResetWarning,0833.1,5.01,000.00,027.3,023.9,000.0,035.5,028.6,32.2,0000.0,0008.96,0004.05,0003.18
2023-08-19 21:31:00,SystemResetWarning,0833.1,5.00,000.00,027.2,024.4,000.0,035.5,028.7,32.4,0000.0,0008.50,0004.01,0003.16
2023-08-19 21:32:00,SystemResetWarning,0833.2,5.00,000.00,027.3,024.8,000.0,035.6,028.9,32.3,0000.0,0008.26,0003.99,0003.13
2023-08-19 21:33:00,SystemResetWarning,0833.2,5.00,000.00,027.3,025.2,000.0,035.6,029.0,32.2,0000.0,0008.24,0003.97,0003.11
2023-08-19 21:34:00,SystemResetWarning,0833.1,4.99,000.00,027.4,025.6,000.0,035.6,029.2,32.2,0000.0,0008.30,0003.96,0003.08
2023-08-19 21:35:00,SystemResetWarning,0833.2,5.00,000.00,027.4,026.0,000.0,035.7,029.3,32.3,0000.0,0008.40,0003.94,0003.06
2023-08-19 21:36:00,SystemResetWarning,0833.1,5.00,000.00,027.5,026.1,000.0,035.7,029.4,32.5,0000.0,0008.56,0003.94,0003.06
2023-08-19 21:37:00,SystemResetWarning,0833.3,4.98,000.00,027.5,025.0,000.0,035.6,029.0,32.2,0000.0,0008.49,0003.89,0003.05
2023-08-19 21:38:00,SystemResetWarning,0833.1,5.01,000.00,027.4,023.8,000.0,035.6,028.8,32.4,0000.0,0008.52,0003.84,0003.03
2023-08-19 21:39:00,SystemResetWarning,0833.1,5.01,000.00,027.3,023.8,000.0,035.5,028.7,32.8,0000.0,0008.51,0003.84,0003.03
2023-08-19 21:40:00,SystemResetWarning,0832.9,5.00,000.00,027.3,024.2,000.0,035.5,028.7,32.7,0000.0,0008.41,0003.83,0003.05
2023-08-19 21:41:00,SystemResetWarning,0832.9,5.00,000.00,027.3,024.6,000.0,035.6,028.8,32.9,0000.0,0008.44,0003.85,0003.07
2023-08-19 21:42:00,SystemResetWarning,0832.9,5.01,000.00,027.3,025.0,000.0,035.6,029.0,32.6,0000.0,0008.38,0003.84,0003.06
2023-08-19 21:43:00,SystemResetWarning,0832.9,5.00,000.00,027.4,025.4,000.0,035.6,029.1,32.3,0000.0,0008.15,0003.82,0003.08
2023-08-19 21:44:00,SystemResetWarning,0833.3,4.99,000.00,027.4,025.8,000.0,035.7,029.2,32.1,0000.0,0008.13,0003.82,0003.09
2023-08-19 21:45:00,SystemResetWarning,0833.3,4.99,000.00,027.5,026.0,000.0,035.7,029.3,31.4,0000.0,0008.00,0003.80,0003.10
2023-08-19 21:46:00,SystemResetWarning,0833.2,4.99,000.00,027.5,025.0,000.0,035.6,029.1,31.2,0000.0,0007.86,0003.80,0003.10
2023-08-19 21:47:00,SystemResetWarning,0832.8,5.01,000.00,027.4,023.9,000.0,035.6,028.8,31.6,0000.0,0008.18,0003.82,0003.11
2023-08-19 21:48:00,SystemResetWarning,0832.7,5.01,000.00,027.4,023.9,000.0,035.5,028.8,32.2,0000.0,0008.27,0003.84,0003.11
2023-08-19 21:49:00,SystemResetWarning,0832.8,5.00,000.00,027.3,024.2,000.0,035.5,028.7,32.5,0000.0,0008.13,0003.82,0003.12
2023-08-19 21:50:00,SystemResetWarning,0832.7,5.00,000.00,027.3,024.7,000.0,035.6,028.9,33.0,0000.0,0007.85,0003.80,0003.13
2023-08-19 21:51:00,SystemResetWarning,0832.7,5.00,000.00,027.3,025.1,000.0,035.6,029.0,31.3,0000.0,0007.74,0003.75,0003.12
2023-08-19 21:52:00,SystemResetWarning,0832.7,5.00,000.00,027.4,025.6,000.0,035.6,029.2,30.7,0000.0,0007.73,0003.72,0003.12
2023-08-19 21:53:00,SystemResetWarning,0832.6,4.99,000.00,027.5,025.9,000.0,035.7,029.3,30.1,0000.0,0007.97,0003.71,0003.12
2023-08-19 21:54:00,SystemResetWarning,0832.7,5.00,000.00,027.5,026.2,000.0,035.7,029.4,30.3,0000.0,0008.41,0003.77,0003.13
2023-08-19 21:55:00,SystemResetWarning,0832.7,4.99,000.00,027.5,025.2,000.0,035.6,029.3,30.8,0000.0,0008.86,0003.79,0003.13
2023-08-19 21:56:00,SystemResetWarning,0832.6,5.01,000.00,027.5,024.1,000.0,035.6,029.0,30.8,0000.0,0009.10,0003.80,0003.13
2023-08-19 21:57:00,SystemResetWarning,0832.6,5.02,000.00,027.4,024.1,000.0,035.5,028.9,32.1,0000.0,0009.07,0003.79,0003.13
2023-08-19 21:58:00,SystemResetWarning,0832.7,5.00,000.00,027.4,024.4,000.0,035.6,028.9,32.6,0000.0,0008.93,0003.81,0003.14
2023-08-19 21:59:00,SystemResetWarning,0832.7,5.00,000.00,027.4,024.8,000.0,035.6,029.0,32.1,0000.0,0008.69,0003.83,0003.15
